INTELSAT 5 (IS-5)

Last updated on Mon Aug 19 2024 00:02:37 GMT+0000 (Coordinated Universal Time)

1 24916U 97046A 24231.15535663 -.00000165 00000+0 00000+0 0 9995 2 24916 8.9328 54.9592 0004920 144.1596 186.7048 0.99038587 98924
UTC large
Height (km)
Speed (km/s)
/
Latitude / Longitude
Inclination (degrees)
Orbital Period (minutes)
Azimuth
Elevation
Range (km)
Doppler Factor

Next 0 passes for location: London (51.5072 / 0.1276)

Sorry there are no passes over London.